Location: Milton Keynes
(52.0316°N, 0.7531°W)
Time: 21:30:50
(UTC+00:00)

Envisat - Pass Details

Date: 28 January 2019
Orbit: 764 x 766 km, 98.2° (Epoch: 15 February)

Event Time Altitude Azimuth Distance (km) Brightness Sun altitude
Rises 19:46:08 0° 202° (SSW) 3,223 6.4 -28.0°
Reaches altitude 10° 19:48:52 10° 216° (SW) 2,301 5.8 -28.4°
Maximum altitude 19:52:55 24° 269° (W) 1,561 5.2 -29.0°
Drops below altitude 10° 19:57:00 10° 322° (NW) 2,315 6.0 -29.6°
Sets 19:59:46 0° 337° (NNW) 3,246 6.7 -30.1°
